Weather History for Menomonie, WI

Change the Weather History Date:

Tuesday, October 18, 2011

  Actual Average (KEAU) Record (KEAU)
Temperature  
Mean Temperature 42 °F 47 °F  
Max Temperature 46 °F 57 °F 87 °F (1950)
Min Temperature 37 °F 36 °F 12 °F (1896)
Degree Days  
Heating Degree Days 24 18  
Month to date heating degree days 276  
Since 1 July heating degree days 509  
Cooling Degree Days 0 0  
Month to date cooling degree days 0  
Year to date cooling degree days 575  
Moisture  
Dew Point 33 °F    
Average Humidity 69    
Maximum Humidity 87    
Minimum Humidity 53    
Precipitation  
Precipitation 0.00 in 0.07 in 0.89 in (2007)
Month to date precipitation 1.52  
Year to date precipitation 27.32  
Snow  
Snow 0.00 in 0.00 in 5.00 in (1925)
Month to date snowfall 0.1  
Since 1 July snowfall 0.1  
Since 1 September snowfall 0.1  
Snow Depth -    
Sea Level Pressure  
Sea Level Pressure 29.93 in    
Wind  
Wind Speed 9 mph (NW)    
Max Wind Speed 17 mph    
Max Gust Speed 25 mph    
Visibility 10 miles    
Events      
T = Trace of Precipitation, MM = Missing Value Source: NWS Daily Summary

Daily Weather History Graph

Daily Weather History Graph

Search for Another Location

Airport:

Trip Planner

Search our weather history database for the weather conditions in past years. The results will help you decide how hot, cold, wet, or windy it might be!

Date:

Astronomy

Oct. 18, 2011 Rise Set
Actual Time 7:26 AM CDT 6:17 PM CDT
Civil Twilight 6:56 AM CDT 6:47 PM CDT
Nautical Twilight 6:22 AM CDT 7:21 PM CDT
Astronomical Twilight 5:48 AM CDT 7:55 PM CDT
Moon 10:50 PM CDT (10/18) 1:27 PM CDT (10/18)
Length of Visible Light 11h 50m
Length of Day
10h 51m
Waning Gibbous, 64% of the Moon is Illuminated
Oct 18
Waning Gibbous
Oct 19
Last Quarter
Oct 26
New
Nov 2
First Quarter
Nov 10
Full

Hourly Weather History & Observations

Time (CDT) Temp. Windchill Dew Point Humidity Pressure Visibility Wind Dir Wind Speed Gust Speed Precip Events Conditions
12:15 AM 42.8 °F 38.0 °F 26.6 °F 53% 29.83 in 10.0 mi West 8.1 mph - N/A   Clear
12:35 AM 41.0 °F 36.4 °F 26.6 °F 57% 29.83 in 10.0 mi West 6.9 mph - N/A   Clear
12:55 AM 41.0 °F 38.0 °F 26.6 °F 57% 29.83 in 10.0 mi West 4.6 mph - N/A   Clear
1:15 AM 41.0 °F 38.0 °F 26.6 °F 57% 29.83 in 10.0 mi West 4.6 mph - N/A   Mostly Cloudy
1:35 AM 42.8 °F 38.6 °F 28.4 °F 57% 29.83 in 10.0 mi West 6.9 mph - N/A   Overcast
1:55 AM 42.8 °F 39.3 °F 28.4 °F 57% 29.83 in 10.0 mi West 5.8 mph - N/A   Overcast
2:15 AM 42.8 °F 39.3 °F 30.2 °F 61% 29.83 in 10.0 mi West 5.8 mph - N/A   Overcast
2:35 AM 42.8 °F 39.3 °F 30.2 °F 61% 29.83 in 10.0 mi WNW 5.8 mph - N/A   Overcast
2:55 AM 44.6 °F 41.4 °F 30.2 °F 57% 29.83 in 10.0 mi WNW 5.8 mph - N/A   Overcast
3:15 AM 42.8 °F 40.1 °F 32.0 °F 66% 29.83 in 10.0 mi NW 4.6 mph - N/A   Overcast
3:35 AM 42.8 °F 39.3 °F 32.0 °F 66% 29.83 in 10.0 mi NW 5.8 mph - N/A   Overcast
4:15 AM 42.8 °F 37.0 °F 32.0 °F 66% 29.84 in 10.0 mi NNW 10.4 mph - N/A   Overcast
4:35 AM 41.0 °F 35.2 °F 32.0 °F 70% 29.85 in 10.0 mi NNW 9.2 mph - N/A   Scattered Clouds
4:55 AM 41.0 °F 33.9 °F 32.0 °F 70% 29.86 in 10.0 mi NNW 12.7 mph 16.1 mph N/A   Clear
5:15 AM 41.0 °F 35.2 °F 32.0 °F 70% 29.87 in 10.0 mi NNW 9.2 mph - N/A   Clear
5:35 AM 39.2 °F 33.0 °F 32.0 °F 75% 29.89 in 10.0 mi NW 9.2 mph - N/A   Clear
5:55 AM 37.4 °F 32.1 °F 32.0 °F 81% 29.89 in 10.0 mi NNW 6.9 mph - N/A   Clear
6:15 AM 37.4 °F 34.9 °F 32.0 °F 81% 29.91 in 10.0 mi NW 3.5 mph - N/A   Scattered Clouds
6:35 AM 39.2 °F 35.0 °F 33.8 °F 81% 29.91 in 10.0 mi WNW 5.8 mph - N/A   Mostly Cloudy
6:55 AM 39.2 °F 35.9 °F 33.8 °F 81% 29.91 in 10.0 mi WNW 4.6 mph - N/A   Overcast
7:15 AM 41.0 °F 35.2 °F 33.8 °F 76% 29.91 in 10.0 mi NW 9.2 mph - N/A   Overcast
7:35 AM 41.0 °F 35.2 °F 33.8 °F 76% 29.91 in 10.0 mi WNW 9.2 mph - N/A   Overcast
7:55 AM 41.0 °F 34.7 °F 33.8 °F 76% 29.91 in 10.0 mi WNW 10.4 mph - N/A   Overcast
8:15 AM 41.0 °F 35.2 °F 33.8 °F 76% 29.92 in 10.0 mi WNW 9.2 mph - N/A   Overcast
8:35 AM 42.8 °F 38.0 °F 33.8 °F 70% 29.92 in 10.0 mi NW 8.1 mph 17.3 mph N/A   Overcast
8:55 AM 42.8 °F 37.0 °F 33.8 °F 70% 29.93 in 10.0 mi NW 10.4 mph - N/A   Mostly Cloudy
9:15 AM 42.8 °F 35.4 °F 32.0 °F 66% 29.93 in 10.0 mi NW 15.0 mph 19.6 mph N/A   Overcast
9:35 AM 42.8 °F 34.8 °F 32.0 °F 66% 29.93 in 10.0 mi NW 17.3 mph 25.3 mph N/A   Overcast
10:15 AM 42.8 °F 36.2 °F 32.0 °F 66% 29.94 in 10.0 mi NW 12.7 mph - N/A   Overcast
10:35 AM 42.8 °F 35.8 °F 32.0 °F 66% 29.95 in 10.0 mi NW 13.8 mph 17.3 mph N/A   Overcast
10:55 AM 44.6 °F 37.2 °F 32.0 °F 61% 29.95 in 10.0 mi NNW 17.3 mph 24.2 mph N/A   Overcast
11:15 AM 44.6 °F 38.1 °F 32.0 °F 61% 29.95 in 10.0 mi NNW 13.8 mph - N/A   Overcast
11:35 AM 44.6 °F 38.4 °F 32.0 °F 61% 29.95 in 10.0 mi NNW 12.7 mph - N/A   Overcast
11:55 AM 44.6 °F 38.1 °F 32.0 °F 61% 29.95 in 10.0 mi NNW 13.8 mph - N/A   Overcast
12:15 PM 44.6 °F 38.4 °F 32.0 °F 61% 29.96 in 10.0 mi NW 12.7 mph - N/A   Overcast
12:35 PM 44.6 °F 37.8 °F 32.0 °F 61% 29.96 in 10.0 mi NW 15.0 mph - N/A   Overcast
1:15 PM 44.6 °F 37.4 °F 32.0 °F 61% 29.94 in 10.0 mi NW 16.1 mph 19.6 mph N/A   Overcast
1:35 PM 44.6 °F 38.8 °F 32.0 °F 61% 29.94 in 10.0 mi North 11.5 mph - N/A   Overcast
1:55 PM 44.6 °F 38.8 °F 32.0 °F 61% 29.93 in 10.0 mi NNW 11.5 mph - N/A   Overcast
2:15 PM 46.4 °F 41.5 °F 32.0 °F 57% 29.93 in 10.0 mi NW 10.4 mph - N/A   Overcast
2:35 PM 44.6 °F 38.1 °F 32.0 °F 61% 29.94 in 10.0 mi NW 13.8 mph - N/A   Overcast
2:55 PM 44.6 °F 39.2 °F 32.0 °F 61% 29.94 in 10.0 mi NNW 10.4 mph - N/A   Overcast
3:15 PM 44.6 °F 38.8 °F 32.0 °F 61% 29.94 in 10.0 mi NNW 11.5 mph - N/A   Overcast
3:35 PM 44.6 °F 38.1 °F 32.0 °F 61% 29.94 in 10.0 mi NNW 13.8 mph 17.3 mph N/A   Overcast
3:55 PM 44.6 °F 38.8 °F 32.0 °F 61% 29.95 in 10.0 mi NNW 11.5 mph 17.3 mph N/A   Overcast
4:15 PM 44.6 °F 38.1 °F 32.0 °F 61% 29.95 in 10.0 mi North 13.8 mph - N/A   Overcast
4:35 PM 44.6 °F 38.8 °F 32.0 °F 61% 29.96 in 10.0 mi NNW 11.5 mph - N/A   Overcast
4:55 PM 42.8 °F 36.6 °F 33.8 °F 70% 29.97 in 10.0 mi North 11.5 mph - N/A   Overcast
5:15 PM 42.8 °F 36.6 °F 33.8 °F 70% 29.97 in 10.0 mi North 11.5 mph - N/A   Overcast
5:35 PM 42.8 °F 38.0 °F 33.8 °F 70% 29.98 in 10.0 mi North 8.1 mph - N/A   Overcast
5:55 PM 42.8 °F 37.5 °F 33.8 °F 70% 29.98 in 10.0 mi NNW 9.2 mph - N/A   Overcast
6:15 PM 42.8 °F 37.0 °F 33.8 °F 70% 29.99 in 10.0 mi NNW 10.4 mph - N/A   Overcast
6:35 PM 42.8 °F 37.0 °F 33.8 °F 70% 30.00 in 10.0 mi NNW 10.4 mph - N/A   Overcast
6:55 PM 41.0 °F 34.3 °F 33.8 °F 76% 30.00 in 10.0 mi NNW 11.5 mph - N/A   Overcast
7:15 PM 41.0 °F 34.7 °F 35.6 °F 81% 30.01 in 10.0 mi NNW 10.4 mph - N/A   Overcast
7:35 PM 41.0 °F 34.7 °F 35.6 °F 81% 30.01 in 10.0 mi NNW 10.4 mph - N/A   Light Drizzle
7:55 PM 41.0 °F 34.7 °F 35.6 °F 81% 30.02 in 10.0 mi NNW 10.4 mph - N/A   Light Drizzle
8:15 PM 41.0 °F 35.8 °F 35.6 °F 81% 30.02 in 7.0 mi NNW 8.1 mph - N/A   Drizzle
8:35 PM 39.2 °F 33.6 °F 35.6 °F 87% 30.02 in 10.0 mi NW 8.1 mph - N/A   Light Drizzle
8:55 PM 41.0 °F 35.8 °F 35.6 °F 81% 30.02 in 10.0 mi NNW 8.1 mph - N/A   Light Drizzle
9:15 PM 41.0 °F 35.8 °F 35.6 °F 81% 30.03 in 10.0 mi NW 8.1 mph - N/A   Light Drizzle
9:55 PM 39.2 °F 33.0 °F 35.6 °F 87% 30.03 in 10.0 mi NNW 9.2 mph - N/A   Light Drizzle
10:15 PM 39.2 °F 33.6 °F 35.6 °F 87% 30.02 in 10.0 mi NNW 8.1 mph - N/A   Overcast
10:35 PM 39.2 °F 34.2 °F 35.6 °F 87% 30.02 in 10.0 mi NNW 6.9 mph - N/A   Overcast
11:15 PM 39.2 °F 32.5 °F 35.6 °F 87% 30.01 in 10.0 mi NW 10.4 mph - N/A   Overcast
11:35 PM 39.2 °F 32.5 °F 35.6 °F 87% 30.01 in 10.0 mi NNW 10.4 mph - N/A   Overcast
11:55 PM 39.2 °F 33.0 °F 35.6 °F 87% 30.01 in 10.0 mi NNW 9.2 mph - N/A   Overcast